TIANWANG 1A (TW-1A)
1 40928U 15051D   19304.74756635  .00003686  00000-0  89972-4 0  9997
2 40928  97.1339 333.0300 0009383 309.1803 142.5024 15.41444554229970
LAPAN A2
1 40931U 15052B   19302.40879780  .00000597  00000-0 -58682-5 0  9994
2 40931   5.9847 190.0824 0011407 235.6408 124.5275 14.76615343220917
LQSAT
1 40958U 15057A   19304.26064710  .00000046  00000-0  14723-4 0  9998
2 40958  97.8850   9.7246 0018567 165.3367 194.8383 14.73094228218615
CHUBUSAT 2
1 41338U 16012B   19304.56208460  .00000390  00000-0  23615-4 0  9990
2 41338  31.0044   7.6244 0013846 358.8863   1.1740 15.00201705203187
CHUBUSAT 3
1 41339U 16012C   19304.78205393  .00000413  00000-0  25321-4 0  9999
2 41339  31.0116   4.1459 0013361   7.3810 352.7045 15.00373712203213
OUFTI-1
1 41458U 16025C   19303.80640865  .00002206  00000-0  11565-3 0  9990
2 41458  98.1011  37.4745 0164287 266.0141  92.2291 15.06127547192759
E-STAR-2
1 41459U 16025D   19304.85236691  .00001887  00000-0  10030-3 0  9995
2 41459  98.0999  38.1547 0165411 263.9047  94.3296 15.05752613192882
AAUSAT 4
1 41460U 16025E   19304.85409323  .00002813  00000-0  14364-3 0  9995
2 41460  98.0956  39.7525 0155430 255.2828 103.1119 15.07757668193039
NUSAT 1
1 41557U 16033B   19304.81034270  .00001590  00000-0  61763-4 0  9999
2 41557  97.4142  31.5158 0013906 173.7347 186.4069 15.27490708190710
BEESAT 4
1 41619U 16040W   19303.85367687 +.00001775 +00000-0 +77465-4 0  9991
2 41619 097.3524 003.4870 0009535 271.6002 088.4143 15.23416645174282
PRATHAM
1 41783U 16059A   19304.12894390  .00000062  00000-0  21269-4 0  9999
2 41783  98.0517   0.6310 0032675 323.0116  36.8833 14.63017162165200
ALSAT 1N
1 41789U 16059G   19304.68611205  .00000102  00000-0  28291-4 0  9995
2 41789  98.0550   3.4672 0027277 310.0250  49.8563 14.64271908165409
NAYIF 1
1 42017U 17008BX  19304.67640126  .00001901  00000-0  77070-4 0  9995
2 42017  97.3892  10.2990 0007638  62.1327 298.0684 15.25848967150503
MAX VALIER SAT
1 42778U 17036P   19304.69174714  .00001193  00000-0  54810-4 0  9997
2 42778  97.3388 359.2803 0013991 108.6291 251.6466 15.22219231130774
